Tracking 18647 objects as of 30-May-2017
HD Live streaming from Space Station
objects crossing your sky now

INTELSAT 2-F4

Track INTELSAT 2-F4 now!
INTELSAT 2-F4 is classified as:


NORAD ID: 2969
Int'l Code: 1967-094A
Perigee: 35,763.2 km
Apogee: 35,884.7 km
Inclination: 3.9 °
Period: 1,437.6 minutes
Semi major axis: 42194 km
RCS: 2.5118 m2 (large)
Launch date: September 28, 1967
Source: International Telecommunications Satellite Organization (ITSO)
Launch site: AIR FORCE EASTERN TEST RANGE (AFETR)
Your satellite tracking list
Your tracking list is empty





NASA's NSSDC Master Catalog

Two Line Element Set (TLE):
1  2969U 67094A   17149.34210604 -.00000082 +00000-0 +00000-0 0  9995
2  2969 003.8542 297.8609 0014401 229.6656 096.0870 01.00164026083648
Source of the keplerian elements: AFSPC